Location: Newark
(29.9790°N, 31.1340°E)
Time: 19:51:22
(UTC+00:00)

Transit 2A Rocket - Pass Details

Date: 18 January 2020
Orbit: 592 x 911 km, 66.7° (Epoch: 16 February)

Event Time Altitude Azimuth Distance (km) Brightness Sun altitude
Rises 05:39:57 0° 253° (WSW) 2,865 7.6 8.5°
Reaches altitude 10° 05:44:01 10° 290° (WNW) 1,930 6.5 9.3°
Maximum altitude 05:45:11 11° 306° (NW) 1,865 6.4 9.5°
Drops below altitude 10° 05:46:20 10° 322° (NW) 1,923 6.6 9.7°
Sets 05:50:22 0° 359° (N) 2,832 7.6 10.5°
